Regional Weather Roundup
Issued by NWS Wakefield, VA

Home | Current Version | Previous Version | Text Only | Print | Product List | Glossary Off
Versions: 1 2 3 4 5 6 7 8 9 10 11 12 13 14 15 16 17 18 19 20 21 22 23 24 25 26 27 28 29 30 31 32 33 34 35 36 37 38 39 40 41 42 43 44 45 46 47 48 49 50

000
ASUS41 KAKQ 291015
RWRAKQ

REGIONAL WEATHER ROUNDUP
NATIONAL WEATHER SERVICE WAKEFIELD VA
600 AM EDT FRI APR 29 2016

Note: "fair" indicates few or no clouds below 12,000 feet with no
significant weather and/or obstructions to visibility. * = Denotes
station may not report precipitation (e.g., rain,snow,etc.),
thunder or fog.

VAZ042-051-052>054-056-291100-
NORTHERN VIRGINIA

CITY           SKY/WX    TMP DP  RH WIND       PRES   REMARKS
WASH NATIONAL  CLOUDY    49  46  90 E9        30.03R
DULLES         CLOUDY    46  44  93 N5        30.03R FOG
FORT BELVOIR   DRIZZLE   48  46  93 VRB2      30.03R
QUANTICO       CLOUDY    50  47  89 N7        30.03S
FREDERICKSBRG* CLOUDY    49  49 100 N3        30.01R
STAFFORD*      CLOUDY    47  46  94 N3        30.05S
WARRENTON      LGT RAIN  48  44  85 NE3       30.02R
CULPEPER*      CLOUDY    48  47  99 N3        30.04R FOG
MANASSAS*      CLOUDY    46  46 100 CALM      30.02S
LEESBURG*      CLOUDY    46  46 100 E3        30.03S FOG
WINCHESTER     CLOUDY    45  45 100 E5        30.01R FOG
FRONT ROYAL*   CLOUDY    45  45 100 N5        30.00R
LURAY*         FOG       46  46 100 NE7       29.99R VSB 1
$$

VAZ048-049-060>072-079>083-291100-
CENTRAL AND SOUTH CENTRAL VIRGINIA

CITY           SKY/WX    TMP DP  RH WIND       PRES   REMARKS
RICHMOND       CLOUDY    50  49  96 N10       29.99R
CHESTERFIELD*  CLOUDY    52  39  62 N6        30.00R
PETERSBURG*    CLOUDY    53  53 100 N7        29.99R FOG
HANOVER        CLOUDY    50  47  89 N5        30.01R
TAPPAHANNOCK*  CLOUDY    51  51 100 N5        30.01R
QUINTON*       CLOUDY    50  50  99 N9        29.99R
CHARLOTTSVILLE FOG       50  48  93 NE6       30.00R VSB 1
GORDONSVILLE*  CLOUDY    49  49 100 N3        30.01R FOG
ORANGE*        CLOUDY    48  48 100 CALM      30.03R FOG
LOUISA*        CLOUDY    54  52  94 N3        29.99S FOG
BUMPASS*       CLOUDY    49  48  99 CALM      30.00R
FARMVILLE*     CLOUDY    55  55 100 NE3       29.98R FOG
CREWE*         CLOUDY    52  52 100 CALM      29.98S
FORT PICKETT*  NOT AVBL
CHASE CITY*    CLOUDY    55  53  94 CALM      29.98S
CLARKSVILLE*   CLOUDY    55  55 100 N5        29.97S
SOUTH HILL*    CLOUDY    55  55 100 N6        30.03R
LAWRENCEVILLE* CLOUDY    54  54 100 N5        29.97R
EMPORIA*       CLOUDY    54  54 100 NW9       29.99R
$$

VAZ088>098-291100-
SOUTHEAST VIRGINIA

CITY           SKY/WX    TMP DP  RH WIND       PRES   REMARKS
NORFOLK        CLOUDY    54  52  93 NE10      29.94S FOG
VIRGINIA BEACH DRZL/FOG  57  52  83 N10       29.93R VSB 1
NORFOLK NAVAL  CLOUDY    56  54  93 NE9       29.95F FOG
WEST POINT*    CLOUDY    52  52  99 N6        30.00R
SALUDA*        CLOUDY    52  52 100 N5        29.97R
NEWPORT NEWS   CLOUDY    54  53  97 NE7       29.95R FOG
LANGLEY AFB    CLOUDY    55  54  98 NE9       29.95R
FORT EUSTIS    NOT AVBL
WILLIAMSBURG*  CLOUDY    55  54  94 N5        29.98R
HR EXEC AP*    CLOUDY    57  54  88 NE7       29.96S
FRANKLIN*      CLOUDY    54  53  97 N6        29.97R FOG
US460-WAKEFLD  CLOUDY    54  52  93 N5        29.97R FOG
$$

VAZ020-022-025-037-045-291100-
WEST CENTRAL AND SOUTHWEST VIRGINIA

CITY           SKY/WX    TMP DP  RH WIND       PRES   REMARKS
STAUNTON*      CLOUDY    52  52 100 CALM      30.00R FOG
WAYNESBORO*    CLOUDY    51  50  96 MISG      29.98R VSB 1
HOT SPRINGS VA LGT RAIN  55  55 100 W9        29.99S VSB<1/4
LYNCHBURG      CLOUDY    53  53 100 CALM      30.00S FOG
DANVILLE       CLOUDY    57  57 100 N5        29.99R FOG
SOUTH BOSTON*  CLOUDY    55  54  95 CALM      29.99R
MARTINSVILLE   CLOUDY    56  55  98 CALM      30.01S
ROANOKE        CLOUDY    57  57 100 SE5       30.01R FOG
BLACKSBURG     FAIR      55  55 100 CALM      30.03R FOG
DUBLIN*        FAIR      56  53  92 W8        30.02R
MARION*        FAIR      59  47  65 W9        30.07R
HILLSVILLE*    FAIR      58  50  74 NW3       30.01S
RICHLANDS*     FAIR      57  43  57 W5        30.05S
WISE*          FAIR      55  45  67 CALM      30.06R
ABINGDON*      FAIR      59  52  76 NW3       30.04R
$$

MDZ021>025-VAZ099-100-291100-
SOUTHERN MARYLAND AND THE DELMARVA PENINSULA

CITY           SKY/WX    TMP DP  RH WIND       PRES   REMARKS
PATUXENT RIVER DRIZZLE   50  47  89 NE12      30.00R
BAY BRIDGE APT NOT AVBL
LEONARDTOWN    CLOUDY    48  46  93 NE3       30.01S
DOVER          CLOUDY    47  47 100 NE9       30.01R
GEORGETOWN     CLOUDY    49  48  97 NE8       30.01R FOG
EASTON         CLOUDY   N/A N/A N/A NE6       30.05R FOG
CAMBRIDGE      CLOUDY    46  46 100 NE6       30.00R
SALISBURY      CLOUDY    49  48  97 NE12      29.98S FOG
OCEAN CITY     CLOUDY    50  49  96 NE10      29.98S FOG
WALLOPS ISLAND CLOUDY    51  50  96 NE12      29.96F
ACCOMACK*      CLOUDY    50   9  18 NE9       29.96S HAZE
$$

NCZ012>017-030>032-291100-
NORTH CENTRAL AND EASTERN NORTH CAROLINA

CITY           SKY/WX    TMP DP  RH WIND       PRES   REMARKS
ROANOKE RAPIDS CLOUDY    55  55 100 N6        29.95R
RALEIGH        FOG       61  60  97 N7        29.96R VSB 1/2
ELIZABETH CITY CLOUDY    56  56 100 NE14      29.92F FOG
AHOSKIE*       CLOUDY    56  55  95 N5        29.94R
EDENTON*       CLOUDY    59  59 100 NE5       29.91F FOG
CURRITUCK*     CLOUDY    55  55 100 N8        29.94R FOG
KILL DEVIL HLS CLOUDY    57  57 100 N6        29.90S FOG
MANTEO         NOT AVBL
CAPE HATTERAS  CLOUDY    63  62  97 NE7       29.89R
TARBORO*       CLOUDY    59  57  96 N5        29.93R
GOLDSBORO      CLOUDY    63  63 100 N5        29.90S FOG
WASHINGTON     CLOUDY    59  59  98 CALM      29.91S FOG
GREENVILLE     CLOUDY    59  59 100 NE5       29.93S FOG
NEW BERN       CLOUDY    67  65  93 N8        29.90R
WILMINGTON     CLEAR     68  66  93 W6        29.89R
$$

VAZ048-291100-
ELSEWHERE

CITY           SKY/WX    TMP DP  RH WIND       PRES   REMARKS
HARRISBURG PA  DRIZZLE   45  42  89 E7        30.04R
BALTIMORE      DRIZZLE   46  44  93 N6        30.02R FOG
ANNAPOLIS      CLOUDY    48  46  93 MISG      30.04R
ANDREWS AFB    CLOUDY    47  46  96 N7        30.01R FOG
PHILADELPHIA   CLOUDY    47  41  80 NE9       30.06R
HENDERSON NC   CLOUDY    58  58 100 N8        29.97R FOG
GREENSBORO     FOG       59  59 100 N5        29.97R VSB 3/4
ROCKY MOUNT    CLOUDY    59  59 100 N8        29.93R FOG
$$

VAZ100-291100-
MARINE

STATION/POSITION TIME  TEMP    WIND        PRES    WAVE   SWELL
                       AIR SEA DIR/SP/G            HT/PER HT/PER
                 (UTC) (F)     (DEG/KT/KT) (MB)    (FT/S) (FT/S)
BRANDYWINE LGT   0900   49      50/ 17/ 19 1016.0R
CAPE MAY NJ      0900   48 57   50/  4/  9 1015.4F
LEWES DE         0900   50 54   70/ 17/ 19 1015.5S
15NM E FENWICK I 0950   50 51              1014.4R   5/ 6
OCEAN-CITY-INLET 0900   50 53   50/  4/ 11 1014.3R
WACHAPREAGUE VA  0900   52 58   10/  7/ 14 1014.3R
THOMAS POINT MD  1000   48 57   30/  8/ 10 1018.2R
GOOSES REEF MD   1000   50 57   50/ 12/ 14 1017.1R   1/ 2
COVE POINT MD    0900   49      60/  9/ 13 1016.2R
SOLOMONS ISLAND  0900   50 60   20/  7/  9   N/A
BISHOPS HEAD MD  0900   50 57   50/ 13/ 17 1014.3R
POTOMAC MD       1000   51 59   30/ 14/ 16 1014.9R   1/ 2
CAMBRIDGE MD     0900   49 61   30/  9/ 11 1014.9R
LEWISETTA VA     0900   51 60   50/  5/  9 1014.9R
RAPPAHANNOCK LGT 0900           20/ 14/ 16 1014.7R
STINGRAY PT      1000   54 61   40/ 14/ 16 1014.8S   2/ 3
YORK RVR RNG VA  0900   54      30/ 13/ 15 1013.7R
YORKTOWN VA      0900   54 62   30/  7/  9 1013.8F
JAMESTOWN VA     1000   53 67  350/  6/ 10   N/A     0
DOMINION TERM VA 0900   56      60/  2/  5 1013.9S
KIPTOPEKE VA     0900      60   20/  7/ 13   N/A
CHES BAY BRIDGE  0900   54 59  360/ 12/ 15 1013.5R
CAPE HENRY VA    0900   53      20/ 17/ 19   N/A
CHESAPEAKE LGHT  0900   52      20/ 20/ 21 1013.7R
WILLOUBY STN VA  0900   55      10/ 10/ 12 1014.8S
CAPE HENRY BUOY  0912      56                N/A     4/ 6
CAPE CHARLES BUO 0926      56                N/A     4/ 6   2/11
OFFSHORE WE BUOY 0921      55                N/A     4/ 6   2/11
64NM E OF VA BCH 0950   54 54  350/ 14/ 16 1011.8R   4/ 6   3/ 6
DUCK PIER NC     0900   58 67  340/ 18/ 21 1012.1R
44100 DUCK FRF   0924      58                N/A     3/ 5
44056 DUCK FRF   0911      58                N/A     3/ 4
OREGON INLET NC  0900   58 67   50/  3/  4 1011.3F
HATTERAS NC      0900   63 70   20/ 11/ 16 1011.5S
DIAMOND SHLS NC  0950   64 71   20/ 14/ 16 1011.4R   3/ 5   2/ 6
CAPE LOOKOUT NC  1000   67     290/  6/  7 1011.0F
$$



USA.gov is the U.S. government's official web portal to all federal, state and local government web resources and services.